Volver al catálogo

CHANG'E 2

ActivoCienciaLPO
NORAD 37174·PAYLOAD·🇨🇳 China

Lanzado Oct 1, 2010 desde Xichang Satellite Launch Center

Loading…

TLE

ObsoletoSource: Space-Track

Época: Oct 1, 2010, 11:00 UTC

1 37174U 10050A   10274.45839120 +.00001938 -61260-5 +00000-0 0  9996
2 37174 029.1937 170.6532 0010000 104.5682 000.0000 16.01538970000006

Sigue CHANG'E 2 en tiempo real con AllMySat

Download on the App Store